[新聞] 美參議院通過提案限制特朗普關稅權力

作者
看板 Stock
時間
留言 178則留言,100人參與討論
推噓 81推 18噓 79→
1.原文連結: https://wallstreetcn.com/articles/3358728 2.原文內容: 美參議院通過提案限制特朗普關稅權力 作者: 一財網 2018-07-12 12:13 美國國會參議院11日以88:11的壓倒性表決結果通過一項非約束性提案,尋求限制特朗加 徵進口商品關稅的總統權力。這是美國國會首次對特朗普行使總統關稅權力作出的立法行 動。 當地時間11日,美國國會參議院以88:11的壓倒性表決結果通過了一項針對特朗普政府貿 易政策的非約束性提案,尋求限制特朗普以國家安全為由加徵進口商品關稅的總統權力。 這是美國國會首次對特朗普行使總統關稅權力作出的立法行動。在88票的讚成票中有39位 共和黨參議員、49位民主黨參議員。 田納西州共和黨參議員柯爾克(Bob Corker)在投票現場告訴第一財經記者,11日的程序性 投票通過後,下一步就是希望能夠通過國會立法,讓國會重新獲得徵收和管理關稅的權力 。 華盛頓政治分析人士表示,儘管11日的投票不能立即阻止特朗普對多國發起的貿易戰,卻 非常清晰地向特朗普政府發出一個信號,即雖然國會參眾兩院由共和黨主導,但不會對特 朗普政府的關稅和貿易政策坐視不管。 限制特朗普濫用權力 “任何支持參議院(在關稅和貿易問題上)發揮作用的人都應該支持這項投票。”柯爾克 在投票前向其他參議員表示,“這是讓參議院和我們的國家走向更好方向所邁出的一小步 。” 此前,柯爾克和賓夕法尼亞州共和黨參議員圖米(Patrick Toomey)曾共同起草一項提案, 要求美國總統加徵任何關稅的計劃都應至少60天提前遞交給國會,經國會批准後才能生效 。 亞利桑那州共和黨參議員弗雷克(Jeff Flake)11日在參議院投票現場表示:“我們應該 控制總統濫用這項權力,恢復憲法賦予國會的相關權力。“ 本月6日開始,美國對340億美元中國產品加徵25%的關稅。而就在前述提案投票的前一天 ,美國貿易代表辦公室公佈了對另外2000億美元中國輸美產品加徵10%關稅的清單。 對此,中國商務部新聞發言人11日發表談話指出,美方以加速升級的方式公佈徵稅清單, 是完全不可接受的,中方對此表示嚴正抗議。美方的行為正在傷害中國,傷害全世界,也 正在傷害其自身,這種失去理性的行為是不得人心的。 美國國會多位共和黨參議員的立法助手11日告訴第一財經記者,由於8月正是美國中期選 舉造勢在各地進入白熱化的時期,特朗普政府10日公佈擬對華2000億美元輸美產品加徵關 稅清單,將進一步加劇他和國會共和黨人之間的矛盾。 眾議院撥款委員會主席布萊迪(Kevin Brady)本週表示,中美兩國如果陷入長期貿易摩擦 ,全球經濟都會受到影響。布萊迪表示,當美國總統以國家安全為由加徵關稅時,眾議院 也可以作出行動對他的權力進行限制,目前眾議院擬先“觀望”特朗普的貿易政策。 美國參議院金融委員會主席哈奇(Orrin Hatch)表示,特朗普政府本週新提出的對中國產 品加徵關稅的措施不僅魯莽衝動,而且完全“漫無目標”,沒有下一步的退出計劃。 “用商人思維在談判” 美國參議院11日的投票雖然不能強迫特朗普政府作出任何政策上的改變,卻被看作是國會 共和黨人發出的象徵性譴責。此前共和黨人曾不斷批評特朗普政府的貿易舉措,卻沒有效 果,此次也被視為共和黨對特朗普發起貿易戰提出的警告。 艾奧瓦州共和黨參議員格萊斯利(Charles Grassley)對特朗普政府的貿易政策提出強烈批 評,他表示特朗普的貿易政策已經嚴重影響到了艾奧瓦州,特別是最近對中國產品加徵關 稅的做法更是極大地危害到了艾奧瓦州從事大豆和玉米種植的農民。 “首先,我是一個自由貿易主義者。如果我們真能實現一種對等狀態的話,誰不願意這樣 做?“格萊斯利就特朗普向全世界發起的貿易戰評論道,”但他(特朗普)是用商人的思 維在談判。問題是,如果他能把談判的對方逼到懸崖而對方不跳下去的話,那我們或許能 拿到一個更好的談判協議。但如果對方跳下去的話,後果將是災難性的。” 格萊斯利說,現在艾奧瓦州的大豆和玉米行業的狀況就是災難性的,價格已經跌到“我們 都看得到的水平”。他表示:“所以,貿易摩擦的後果是非常災難性的,我每天都感到非 常非常緊張。” 3.心得/評論: 我每天都感到非常非常緊張 昨天多軍緊張 今天空軍緊張 明天看川皇嘴巴決定哪邊緊張 這盤喜歡洗雙巴 歐印國巨,爽訂賓利 還是 空爆國巨,爽訂賓利 建議看盤軟體刪掉 一個月後見真章 -- 女生喜歡看一個人慢慢步向死亡的電影 男生喜歡看一堆人瞬間死掉的電影 而我喜歡看女生不會死卻一直說她快死掉的電影 \( ̄︶ ̄)/ -- ※ 發信站: 批踢踢實業坊(ptt.cc), 來自: 182.235.148.216 ※ 文章網址: https://www.ptt.cc/bbs/Stock/M.1531377362.A.576.html
1FEDFR: 最近公園成員輪替真快…… 07/12 14:37
※ 編輯: roxiang (182.235.148.216), 07/12/2018 14:38:53
2Farmanisir: 好像找不太到英文版 07/12 14:37
3FRuRu5566: 議員背後的財團們也不是吃素的~ 07/12 14:38
4Fadsl12367: 要噴了 07/12 14:40
5Ff204137: 忽多忽空 遲早畢業 07/12 14:40
6Fpeace1way: 新聞是真的話,空方表示:........ 07/12 14:40
7Fhijacker: 這些議員收了老共多少錢 川普該去查一查了 07/12 14:41
8Fzick8932511: 88:11.....自己人都不支持了 07/12 14:42
9Ffabienryan: 爽訂CX-5 07/12 14:42
10Fbook2368: 特朗普空單剛布馬上吃筍? 07/12 14:43
11Fting74942: 川普 07/12 14:44
12Fyee: 川普下一步:我要求FBI查查投下贊成票的人是否有收中國遊說 07/12 14:44
13Fyee: 資金 07/12 14:44
14Ftutuan: 有英文版的 google "trump tariff senate" 07/12 14:44
15Fsagarain: 美國岳飛 07/12 14:44
16FYOTO0282: 基本美中貿易戰開打已成定局,總體環境不變總要反彈逃命 07/12 14:45
17Fethan0419: 不相信川普會賠錢 一定是多單也布好了 07/12 14:45
18FYOTO0282: 指數拉越高,出來混總要還的 07/12 14:45
19Fpipipapa22: 再放話呀!自己玩死自己了吼~ 07/12 14:46
20Ftutuan: 也有可能是為了歐加日等盟國吧 07/12 14:46
21Fpeace1way: 不過這新聞也說這投票沒約束力,川普會理嗎? 07/12 14:47
22Fwedwu: 孤乃公園侯,可跟孤預定觀河第一排! 07/12 14:47
23Ftctv2002: 川普炒股權利被限縮了嗎 07/12 14:48
24FFizban: 參議院最佳豬隊友 07/12 14:48
25Fmecca: 川寶不能放消息炒股了 哭哭 07/12 14:50
26Fkipi91718: XDDDDD 07/12 14:51
27Fditzydoo: 糟糕 吱吱又不能靠川普自慰來當安眠藥了 07/12 14:52
28Fodin711022: 特朗普?是指川普?這翻譯? 07/12 14:52
29Fdivad: 自肥方案 乾脆所有決策都要參議院同意 07/12 14:52
30Favaricious: 川普不會被罷免吧?跟參議院嗆起來 07/12 14:52
31Fdennistao: 賓利或成最大贏家是不是? 07/12 14:52
32Ftoddy5401: 應該很多人有接收中國的好處 可惜 快把中國搞倒了 07/12 14:55
33Fif2: 被ban了 07/12 14:55
34Fkrthree: 不管有沒有通過。中國或成最大贏家 07/12 14:56
35Fbitlife: 川普:讓我們歡迎麥卡錫二世參議員 參議員們:我們立刻撤 07/12 14:57
36Fbryanyang507: 沒約束力 川普先幹下去你那他有辦法嗎 07/12 14:57
37Ftctv2002: 內文說 不能強迫川普政府的決策 那這投票有什麼意義 07/12 14:57
38Fethan0419: 先拉一波再說 有沒有意義不重要 07/12 15:01
39Fwake7078: 賓利銷售員:你聽過國巨嗎 07/12 15:01
40Froxiang: 賓利銷售員:最近很多人來找我訂車 都提到國巨 07/12 15:04
41FKuoJia: 多空輸贏都會買賓利 那幹嘛不買賓利家股票 07/12 15:04
42Fa29976137: 民主政治的問題 07/12 15:05
43Fbanbee100: 沒有約束力的東西…你以為川普會鳥你嗎? 07/12 15:06
44Fhbj1941: 一堆白癡,誰是背骨仔給看光光,扯後腿的等著川普算後帳 07/12 15:07
45Fdennistao: 敢跟小川作對真的很勇敢,先不論有沒有辦法通過 07/12 15:07
46Fkutkin (5留言): 投票投給選民看,不然選民會罵 07/12 15:07
47Fa06030501: 老川被嘎爆了 07/12 15:11
48Fyomo2: 這應該是美國國會對總統權力擴張的不安造成的反撲,川普把 07/12 15:16
49Fyomo2: 別人不敢用的都用了。 07/12 15:16
50Fpoqwmnzx25: 剛剛去7-11買東西 看到好多空軍跪在地上 怎麼了?????? 07/12 15:26
51Fnicholaslee: 解散國會 07/12 15:26
52Fbightt97018: XDDDD 這怎麼很好笑 07/12 15:32
53Fairness0910 (6留言): 川普只是想搞倒幾家公司 讓自己富人榜排名上升吧 07/12 15:35
54Fyesonline: 艾奧瓦州的大豆和玉米行業的狀況就是災難性的..... 07/12 15:36
55Flop4698: 重點“非約束性提案”…… 07/12 15:38
56Fs72005ming: 爽 07/12 15:44
57Fvmcjormp: 看翻譯就知道超中國新聞連翻譯修正都懶 07/12 15:49
58Fdewking: 穩 07/12 15:50
59Fbitlife: 你聽過艾奧瓦級戰艦嗎? 聽說二戰就是在該級戰艦上受降 07/12 15:54
60Fcd951753: 我在公園..鄰居真的天天換 不變的只有我...995 07/12 15:55
61Fkof70380: 難怪陸股噴了 07/12 16:08
62Fakane5499: 空軍快點去公園卡位 07/12 16:12
63Fqq05: 讚 07/12 16:14
64Fhoward172: 哈哈 07/12 16:15
65Fpaojung: 創普 07/12 16:15
66Frodney92: 舔共狗報假新聞 07/12 16:15
67Fhoward172: 假不假,很快就知道 07/12 16:16
68Faquahau: 我川: 幹林北空單要被軋爆了 07/12 16:17
69Fhirosimamika: 美國總統有否決國會通過議案的權利,參議院這個沒用 07/12 16:18
70Fhirosimamika: 吧,到三普那裡就不會通過了 07/12 16:18
71Fhoward172: 但如果通過,會很好笑XDD 07/12 16:21
72Fgracile: 早晚玩火 玩屎自己 07/12 16:22
73Fibetitisnot: 利多出盡可以準備崩了 07/12 16:25
74Ftigerliao: 只是非約束性提案,不到期中選舉川普在關稅上是不會放 07/12 16:27
75Ftigerliao: 手的 07/12 16:27
76Fjerrylin: 可是川普還是可以繼續嘴砲啊 07/12 16:28
77Fknives: 特朗普是誰阿 07/12 16:31
78Frandystock: 消息出來,小道窮也沒大漲,只有亞股在自high 07/12 16:31
79Fethan0419: 有錢就是老大 07/12 16:33
80Fanomy: 陸媒在自嗨 07/12 16:36
81Fanomy: 看一下消息來源好嗎 最好有這麼簡單 07/12 16:36
82FWTF55665566 (9留言): 內文明明是說不滿對盟國也課稅吧 07/12 16:37
83Fkutkin (5留言): 是亞洲國家好像得到救贖一樣 07/12 16:37
84FWTF55665566 (9留言): 支那仍是首要大敵 07/12 16:37
85FWTF55665566 (9留言): 對議員來說:支那是最大敵人 這點跟川普一致 07/12 16:38
86Fckw19 (18留言): 其實想也知道 貿易戰讓美國多少產業受到傷害 07/12 16:38
87FWTF55665566 (9留言): 但是他們不同意川普同時又跟盟國施壓 07/12 16:38
88Fckw19 (18留言): Senate Approves Symbolic Resolution in Attempt to Curb 07/12 16:39
89Fckw19 (18留言): President Trump's Mounting Tariffs 07/12 16:39
90Fmagamanzero: 簡單說就是有肉大家吃 不要自己吃 07/12 16:40
92Fckw19 (18留言): 想看英文的這裡有 07/12 16:40
93Fckw19 (18留言): 翻譯:參院通過象徵性的決議,抑制川普總統所豎立的關稅 07/12 16:42
94Feiw123 (14留言): 哈哈 07/12 16:43
95Fckw19 (18留言): Corker表示,目前關稅並不是出於國家安全而實施,而是總統 07/12 16:46
96Fckw19 (18留言): 權力的濫用 07/12 16:46
97Feiw123 (14留言): 話隨便他講 當初整天喊要打中國 就這群人 07/12 16:47
98Feiw123 (14留言): 這法案也只是象徵性 沒有約束力 07/12 16:47
99Feiw123 (14留言): 因為外交 憲法明文 寫就是總統權限 07/12 16:48
100FWTF55665566 (9留言): 反正支那也別想靠這種方式以為能躲過 07/12 16:48
101FWTF55665566 (9留言): 老美的共識都是支那就是最大敵人 吵只是在吵用什麼 07/12 16:49
102FWTF55665566 (9留言): 方式搞定而已 07/12 16:49
103Feiw123 (14留言): 大概會開放一些市場 然後躲過吧 07/12 16:49
104Feiw123 (14留言): 說共識的 一定都沒有看國外新聞 07/12 16:49
105Fckw19 (18留言): 所以他們要立法 但沒這麼快就是了 07/12 16:50
106Feiw123 (14留言): 就跟你說 違憲 還立法 07/12 16:50
107Fhumbler: 美國議員不敢得罪中國啦 07/12 16:50
108Feiw123 (14留言): 中國欠打一回事 外交就是國會不能動的區域 07/12 16:50
109Fckw19 (18留言): 這個重點在於 川普是否會為了期中選舉而對參院退讓 07/12 16:51
110Fkutkin (5留言): 三權分立 國會只能直接把總統換掉 07/12 16:51
111Feiw123 (14留言): 三普也是有本錢把國會翻了 直接開除穆勒 美國憲政就毀了 07/12 16:51
112Fckw19 (18留言): 共和黨若在期中選舉失利 未來川普要推動很多事情更難了 07/12 16:51
113Feiw123 (14留言): 這是民主黨自己講的 07/12 16:51
114Fkutkin (5留言): 不能指手劃腳 07/12 16:51
115Feiw123 (14留言): 這個要球 只要中國肯投降輸一半 三普大概會買單吧 07/12 16:52
116FWTF55665566 (9留言): 反正這都不影響老美反支那的大戰略 07/12 16:53
117Fckw19 (18留言): 新聞獎的 不是我講的 07/12 16:53
118Feiw123 (14留言): 當然影響阿 怎不影響 07/12 16:53
119Fckw19 (18留言): 田納西州共和黨參議員柯爾克(Bob Corker)指出,在11日的 07/12 16:55
120Fckw19 (18留言): 程序性投票通過後,下一步就是希望能通過國會立法,讓國會 07/12 16:55
121Fckw19 (18留言): 能重新取得管理和徵收關稅的權力。 07/12 16:56
122Fckw19 (18留言): 你如果有在follow川普twiter,大概可以看得出來美國現在蠻 07/12 16:56
123Fckw19 (18留言): 分裂的 07/12 16:56
124FWTF55665566 (9留言): 分裂的只是反川跟挺川派 這早就知道了 07/12 16:59
125Feiw123 (14留言): 民主黨還分成 三派 你不知道喔 ㄏㄏ 07/12 17:00
126Feiw123 (14留言): 應該說 建制派 和三普黨 這樣分 07/12 17:01
127Faegis43210: 目前當然是支持會讓股市波動變大的川普 07/12 17:04
128Faegis43210: 獨裁是最可怕的,削弱習近平的權力是普世價值 07/12 17:06
129Fkutkin (5留言): 國會這樣不就自肥 07/12 17:08
130FNoemen: 糟糕! 股版覺青不能高潮了!? 07/12 17:10
131Faquahau: 美提案通過柯p難道不用負責嗎,柯p下台 07/12 17:31
132Fhb0922: 7.77從高潮變軟屌 07/12 17:35
133Fjohnny9667 (5留言): 非約束性提案 07/12 17:39
134Fjohnny9667 (5留言): 笑死,你們高潮太快了 07/12 17:39
135Fairness0910 (6留言): 廢話,提案當然沒有約束性阿 但提案過了就會開始立法 07/12 17:43
136Fairness0910 (6留言): 雖然不知道會立到什麼時候 國會對新法會不會通過 07/12 17:44
137Fairness0910 (6留言): 但川普一定多多少少會收斂一點吧 07/12 17:45
138Fairness0910 (6留言): 除了ptt股板空軍跟台灣仇中覺青 到底還有誰喜歡他 07/12 17:46
139Fairness0910 (6留言): 這樣亂搞? 07/12 17:47
140Fpsee: 仇中覺青等等再po個10篇川普關稅鴨鴨精 07/12 17:52
141Fjohnny9667 (5留言): 仇中覺青? 又再紮稻草人 此提案主因是歐加墨的鋼鋁關 07/12 18:04
142Fjohnny9667 (5留言): 稅 07/12 18:04
143Fjohnny9667 (5留言): 就說你們高潮的太快 還不信 07/12 18:05
144Fmhlee: 沒約束力的東西五毛在爽什麼 07/12 18:17
145Fewayne: 立法過了的然後呢?聽說那個台灣旅行法也通過了,怎麼大家 07/12 18:17
146Fewayne: 都說通過了也沒用? 07/12 18:17
147Fckw19 (18留言): 各種貼標籤 XDDDDD 偉哉股板酸民 07/12 18:21
148Ftsuneo: 來自台灣的新聞:川普..來自對岸的新聞:特朗普 07/12 18:34
149Fmirac1e: 笑死這哪招 可以用這樣整空單的嗎 XD 07/12 18:46
150FYJJ: 新聞有異 原文跟本是針對盟友非… 07/12 18:47
151FMathefucker: 高潮的人有沒有想過美國是總統制,你立一個法案要把 07/12 18:51
152FMathefucker: 總統擁有的權力拔掉,最好是有這麼簡單 07/12 18:51
153Fspawnpepsi: 看川普今晚怎麼弄國會 07/12 18:51
154Fmhlee: 其實是要川普別開地圖炮 把盟友 加拿大歐盟等國都課高關稅 07/12 18:52
155Fspawnpepsi: 公開拔掉獅子的鬃毛,下場絕對是兩敗俱傷 07/12 18:54
156Fberryc: 說中美貿易戰對台灣是利多的 臉腄腄了 07/12 19:02
157Fberryc: 腫腫 07/12 19:03
158Fsprucewind: 川普連盟友加拿大也開徵就毛毛的,根本是偷放空自己賺 07/12 19:04
159FMathefucker: 而且對財政有關的動議是眾議院的權利,參議院插啥花 07/12 19:06
160FMathefucker: 啊?????不要因為你要選舉就亂插花 07/12 19:06
161Fchewei55: 歐洲過關,中國繼續GG 07/12 19:39
162Frj486: 但目前為止川普策略好像是成功的說 07/12 20:42
163FGENU: 美國匪諜 07/12 21:53
164Fkrthree: 川普表面上一定要全面開戰啊。然後在跟其他人和好。最後 07/12 22:49
165Fkrthree: 只剩中國沒和好。那是誰的問題?當然是中國的問題啊。xd 07/12 22:49
166Fschooldance: 川普孫子兵法一定讀很熟 07/12 22:56
167FSinkage: 推kr3 川普真的很會 07/12 23:34
168FhelloI: 樓下還有紙箱可以借我嗎?? 07/12 23:34
169Fjyekid: 別高潮了 之前川普就威脅要以國家安全為由加徵關稅 07/13 00:47
170Fjyekid: 美國國會只是限制這項權利 告誡他不能亂用 07/13 00:48
171FCruiseTom: 白痴 07/13 00:55
172Fshortoneal: 帳篷便宜賣,意者私密 07/13 01:26
173Fsam352306: 樓上全收,另租水岸第一排場地長租佳。 07/13 01:50
174Frichjf: 非約束性提案 07/13 06:56
175Fa176893: 看看原文吧,沒有說解除對中國的制裁 07/13 08:25
176Flise1017: 說個笑話:國會可以限制總統的行政權 07/13 11:59
177Fkraven: 美國議員:我收了好多錢,好爽喔 07/13 13:14
178Fpkh1234: 完了 好想笑 07/13 19:56
看更多 roxiang 的文章,或回到 stock 看板